www.pogodaiklimat.ru

Погода и климат >> Архив погоды >> Португалия >> Порталегра


ПОГОДА в Порталегре

  • Прогноз погоды в Порталегре
  • Монитор погоды в Порталегре

АРХИВ ПОГОДЫ в Порталегре

Время (UTC), дата Ветер
(напр.,м/с)
 
Видим.   Явления Облачность Т
(С)
Тd
(С)
f
(%)
Тe
(С)
Тes
(С)
Комфортность P
(гПа)
Po
(гПа)
Тmin
(С)
Tmax
(С)
R
(мм)
R24
(мм)
S
(см)
01 10.07 З 1 н/о н/о +21.6 +13.3 59
02 10.07 СВ 4 н/о н/о +23.3 +9.4 41
03 10.07 СВ 4 н/о н/о +23.2 +9.2 41
04 10.07 В 3 н/о н/о +24.5 +10.1 40
05 10.07 В 1 н/о н/о +21.0 +10.2 50
06 10.07 В 3 н/о н/о +23.9 +9.6 40 +20.6
07 10.07 В 3 н/о н/о +25.7 +10.1 37
08 10.07 ЮВ 5 н/о н/о +25.4 +10.2 38
09 10.07 ЮВ 5 н/о н/о +27.1 +10.1 34
10 10.07 В 5 н/о н/о +28.5 +9.9 31
11 10.07 ЮВ 4 н/о н/о +30.7 +9.9 28
12 10.07 В 2 н/о н/о +31.2 +8.8 25
13 10.07 В 3 н/о н/о +31.4 +8.6 24
14 10.07 СВ 2 н/о н/о +32.0 +9.2 24
15 10.07 СВ 2 н/о н/о +31.1 +7.5 23
16 10.07 С 3 н/о н/о +33.7 +8.3 21
17 10.07 В 3 н/о н/о +32.3 +8.2 22
18 10.07 СВ 2 н/о н/о +32.0 +8.0 23 +33.9
19 10.07 СВ 2 н/о н/о +31.3 +7.9 23
20 10.07 СВ 3 н/о н/о +29.4 +7.7 26
21 10.07 В 3 н/о н/о +28.8 +7.6 26
22 10.07 В 3 н/о н/о +28.5 +5.7 24
23 10.07 СВ 5 н/о н/о +28.6 +4.3 21
00 11.07 СВ 6 н/о н/о +28.5 +4.5 22
01 11.07 СВ 6 н/о н/о +27.5 +6.5 26
02 11.07 СВ 6 н/о н/о +27.9 +6.8 26
03 11.07 СВ 5 н/о н/о +27.8 +6.4 26
04 11.07 СВ 5 н/о н/о +27.5 +6.7 27
05 11.07 СВ 5 н/о н/о +27.3 +6.4 26
06 11.07 СВ 4 н/о н/о +27.5 +6.0 25 +26.7
07 11.07 СВ 4 н/о н/о +28.6 +6.3 24
08 11.07 З 1 н/о н/о +28.9 +7.6 26
09 11.07 З 2 н/о н/о +30.9 +8.8 25
10 11.07 СЗ 2 н/о н/о +33.1 +7.8 21
11 11.07 СЗ 2 н/о н/о +33.8 +8.0 20
12 11.07 ЮВ 2 н/о н/о +35.4 +7.5 18
13 11.07 ЮВ 3 н/о н/о +35.5 +6.9 17 +33 +33 жарко 1010.2 946.1
14 11.07 В 3 н/о н/о +36.1 +6.5 16 +34 +34 очень
жарко
1009.5 945.7
15 11.07 ЮВ 3 н/о н/о +37.4 +6.0 15 +35 +35 очень
жарко
1009.0 945.3
16 11.07 ЮЗ 2 н/о н/о +37.9 +5.5 14 +35 +35 очень
жарко
1008.6 945.0
17 11.07 Ю 2 н/о н/о +37.5 +5.8 14 +35 +35 очень
жарко
1008.5 944.8
18 11.07 ЮВ 3 н/о н/о +36.0 +6.1 16 +34 +34 очень
жарко
1008.7 944.7 +39.2
19 11.07 ЮВ 3 н/о н/о +34.6 +5.4 16 +32 +32 жарко 1009.1 944.8
20 11.07 ЮВ 3 н/о н/о +32.2 +6.5 20 +30 +30 жарко 1009.8 945.0
21 11.07 ЮВ 3 н/о н/о +32.1 +6.0 20 +30 +30 жарко 1010.2 945.4
22 11.07 ЮВ 3 н/о н/о +28.9 +9.8 30 +29 +29 жарко 1011.3 945.9
23 11.07 ЮВ 2 н/о н/о +27.3 +11.4 37 +28 +28 жарко 1011.9 946.0
00 12.07 ЮВ 2 н/о н/о +24.5 +12.0 46 +26 +26 жарко 1012.9 946.3
01 12.07 ЮВ 4 н/о н/о +23.1 +12.1 50 +26 +26 жарко 1014.1 947.1
02 12.07 В 2 н/о н/о +23.2 +11.9 49 +26 +26 жарко 1014.0 947.0
03 12.07 ЮВ 3 н/о н/о +22.6 +11.7 50 +25 +25 комфорт 1014.0 946.8
04 12.07 ЮВ 2 н/о н/о +24.3 +10.9 43 +26 +26 жарко 1013.7 947.0
05 12.07 ЮВ 1 н/о н/о +24.1 +9.6 40 +25 +25 комфорт 1014.1 947.3
06 12.07 ЮВ 3 н/о н/о +24.4 +8.9 37 +25 +25 комфорт 1014.1 947.4 +22.3
07 12.07 ЮВ 3 н/о н/о +24.5 +9.6 39 +25 +25 комфорт 1014.5 947.8
08 12.07 В 2 н/о н/о +24.8 +9.1 37 +25 +25 комфорт 1014.4 947.7
09 12.07 ЮЗ 3 н/о н/о +24.7 +9.8 39 +26 +26 жарко 1015.6 948.9
10 12.07 ЮВ 2 н/о н/о +25.7 +11.1 40 +27 +27 жарко 1014.9 948.4
11 12.07 ЮВ 1 н/о н/о +25.7 +12.0 42 +27 +27 жарко 1015.3 948.8
12 12.07 ЮЗ 2 н/о н/о +26.4 +11.5 39 +28 +28 жарко 1015.5 949.2
13 12.07 ЮЗ 2 н/о н/о +26.7 +12.3 41 +28 +28 жарко 1015.1 948.8
14 12.07 СЗ 3 н/о н/о +29.6 +11.7 33 +30 +30 жарко 1013.3 947.8
15 12.07 З 3 н/о н/о +32.5 +12.1 29 +33 +33 жарко 1012.2 947.3
16 12.07 СЗ 2 н/о н/о +31.3 +11.8 30 +32 +32 жарко 1012.3 947.1
17 12.07 С 2 н/о н/о +33.9 +12.1 27 +34 +34 очень
жарко
1011.2 946.6
18 12.07 С 3 н/о н/о +32.3 +11.6 28 +32 +32 жарко 1011.0 946.1 +35.9
19 12.07 СВ 3 н/о н/о +30.5 +11.4 31 +31 +31 жарко 1011.1 945.9
20 12.07 З 4 н/о н/о +25.9 +14.7 50 +28 +28 жарко 1012.6 946.4
21 12.07 СЗ 5 н/о н/о +23.7 +14.8 57 +26 +26 жарко 1013.9 947.0
22 12.07 З 4 н/о н/о +21.1 +14.0 64 +24 +24 комфорт 1015.3 947.8
23 12.07 З 4 н/о н/о +20.0 +13.8 67 +22 +22 комфорт 1015.7 947.9
00 13.07 СЗ 4 н/о н/о +19.2 +14.6 75 +21 +21 комфорт 1015.4 947.5
01 13.07 З 3 н/о н/о +18.0 +14.1 78 +18 +18 1015.4 947.3
02 13.07 З 1 н/о н/о +16.6 +14.6 88 +17 +17 1015.8 947.2
03 13.07 штиль 0 н/о н/о +15.8 +14.6 93 +16 +16 1015.5 946.8
04 13.07 СЗ 1 н/о н/о +15.9 +14.9 94 +17 +17 1015.8 947.0
05 13.07 ЮВ 1 н/о н/о +15.6 +15.0 96 +16 +16 1015.6 946.8
06 13.07 ЮЗ 1 н/о н/о +15.7 +15.0 96 +16 +16 1015.9 947.1 +15.4
07 13.07 ЮЗ 2 н/о н/о +16.0 +14.9 93 +16 +16 1016.2 947.4
08 13.07 З 2 н/о н/о +17.4 +14.6 84 +18 +18 1016.3 947.9
09 13.07 ЮЗ 2 н/о н/о +19.3 +14.0 71 +21 +21 комфорт 1016.2 948.2
10 13.07 З 3 н/о н/о +20.4 +14.2 68 +23 +23 комфорт 1016.1 948.3
11 13.07 З 3 н/о н/о +21.2 +13.9 63 +24 +24 комфорт 1016.2 948.5
12 13.07 З 3 н/о н/о +22.4 +13.9 59 +26 +26 жарко 1015.4 948.2
13 13.07 ЮЗ 3 н/о н/о +24.0 +13.6 52 +26 +26 жарко 1014.7 947.9
14 13.07 З 4 н/о н/о +23.8 +12.8 50 +26 +26 жарко 1014.2 947.4
15 13.07 З 4 н/о н/о +25.5 +13.4 47 +28 +28 жарко 1013.8 947.2
16 13.07 З 5 н/о н/о +26.2 +13.6 46 +28 +28 жарко 1013.1 946.7
17 13.07 З 5 н/о н/о +24.6 +13.8 51 +27 +27 жарко 1013.0 946.4
18 13.07 СЗ 5 н/о н/о +24.4 +13.8 52 +27 +27 жарко 1013.2 946.6 +32.4
19 13.07 СЗ 5 н/о н/о +23.5 +15.1 59 +26 +26 жарко 1014.0 947.1
20 13.07 СЗ 5 н/о н/о +21.7 +15.2 67 +25 +25 комфорт 1014.5 947.2
21 13.07 СЗ 3 н/о н/о +21.1 +15.3 69 +24 +24 комфорт 1015.1 947.6
22 13.07 СЗ 4 н/о н/о +20.5 +14.6 69 +23 +23 комфорт 1015.1 947.5
23 13.07 СЗ 4 н/о н/о +19.2 +14.1 72 +21 +21 комфорт 1015.5 947.5
00 14.07 СЗ 4 н/о н/о +17.8 +14.3 80 +18 +18 1015.6 947.3
01 14.07 СЗ 3 н/о н/о +16.8 +14.5 86 +17 +17 1015.6 947.2
02 14.07 СЗ 3 н/о н/о +16.3 +14.6 90 +16 +16 1015.6 946.9
03 14.07 СЗ 3 н/о н/о +15.2 +14.6 96 +14 +14 1015.6 946.7
04 14.07 СЗ 2 н/о н/о +15.0 +14.5 97 +15 +15 1015.5 946.6
05 14.07 СЗ 3 н/о н/о +15.0 +14.4 96 +14 +14 1015.5 946.6
06 14.07 СЗ 4 н/о н/о +14.9 +14.1 95 +14 +14 1015.6 946.7 +14.8
07 14.07 СЗ 5 н/о н/о +15.5 +14.3 93 +14 +14 1015.7 946.9
08 14.07 СЗ 2 н/о н/о +17.3 +14.5 84 +18 +18 1015.8 947.3
09 14.07 СЗ 3 н/о н/о +19.9 +14.5 71 +22 +22 комфорт 1015.5 947.7
10 14.07 З 2 н/о н/о +23.0 +14.7 60 +27 +27 душно 1015.0 947.8
11 14.07 З 4 н/о н/о +25.0 +14.6 52 +28 +28 жарко 1014.5 947.8
12 14.07 З 3 н/о н/о +26.8 +14.3 46 +29 +29 жарко 1014.1 947.8
13 14.07 З 3 н/о н/о +28.7 +13.8 40 +31 +31 жарко 1013.3 947.4
14 14.07 СЗ 3 н/о н/о +29.6 +12.9 36 +31 +31 жарко 1012.5 947.1
15 14.07 З 5 н/о н/о +31.1 +12.1 31 +32 +32 жарко 1011.9 946.6
16 14.07 З 5 н/о н/о +31.3 +13.0 33 +32 +32 жарко 1011.5 946.4
17 14.07 З 6 н/о н/о +30.4 +13.8 36 +32 +32 жарко 1011.6 946.3
18 14.07 З 5 н/о н/о +29.7 +12.9 36 +31 +31 жарко 1011.8 946.4 +31.9
19 14.07 СЗ 6 н/о н/о +27.4 +15.9 49 +30 +30 жарко 1012.3 946.3
20 14.07 СЗ 6 н/о н/о +23.9 +16.4 63 +27 +27 жарко 1013.4 946.6
21 14.07 СЗ 5 н/о н/о +22.1 +16.3 70 +26 +26 душно 1014.0 946.8
22 14.07 СЗ 5 н/о н/о +20.8 +16.3 75 +24 +24 комфорт 1014.4 946.9
23 14.07 СЗ 2 н/о н/о +19.7 +16.1 80 +23 +23 комфорт 1014.7 947.0
00 15.07 СЗ 3 н/о н/о +19.4 +16.0 81 +21 +21 комфорт 1014.4 946.6
01 15.07 СЗ 3 н/о н/о +16.5 +15.6 94 +16 +16 1014.8 946.3
02 15.07 СЗ 3 н/о н/о +15.9 +15.6 98 +15 +15 1014.7 946.0
03 15.07 СЗ 4 н/о н/о +15.3 +15.2 99 +14 +14 1014.3 945.6
04 15.07 СЗ 4 н/о н/о +15.2 +15.1 99 +14 +14 1014.4 945.7
05 15.07 СЗ 4 н/о н/о +15.0 +14.9 99 +14 +14 1014.8 945.9
06 15.07 С 3 н/о н/о +14.8 +14.7 99 +14 +14 1014.6 945.8 +14.7
07 15.07 СЗ 2 н/о н/о +14.9 +14.9 100 +14 +14 1014.9 946.0
08 15.07 СЗ 2 н/о н/о +15.9 +15.7 99 +16 +16 1015.2 946.5
09 15.07 З 2 н/о н/о +18.2 +15.7 85 +19 +19 1015.0 946.9
10 15.07 З 2 н/о н/о +20.8 +15.2 70 +24 +24 комфорт 1014.6 947.0
11 15.07 З 2 н/о н/о +23.9 +15.1 58 +27 +27 жарко 1013.9 947.0
12 15.07 З 3 н/о н/о +26.6 +15.4 50 +29 +29 жарко 1013.1 947.0
13 15.07 ЮЗ 3 н/о н/о +27.8 +14.9 45 +30 +30 жарко 1012.5 946.7
14 15.07 З 4 н/о н/о +29.4 +14.8 41 +32 +32 душно 1012.0 946.4
15 15.07 З 4 н/о н/о +30.9 +14.5 37 +33 +33 душно 1011.3 946.0
16 15.07 З 4 н/о н/о +30.6 +12.5 33 +31 +31 жарко 1011.0 945.8
17 15.07 З 5 н/о н/о +31.3 +11.1 29 +31 +31 жарко 1010.4 945.4
18 15.07 З 5 н/о н/о +29.8 +13.1 36 +31 +31 жарко 1010.7 945.4 +31.9
19 15.07 СЗ 4 н/о н/о +28.0 +14.3 43 +30 +30 жарко 1011.3 945.6
20 15.07 СЗ 3 н/о н/о +24.0 +16.0 61 +27 +27 жарко 1012.6 945.9
21 15.07 СЗ 3 н/о н/о +20.5 +16.0 75 +24 +24 комфорт 1013.8 946.3
22 15.07 СЗ 4 н/о н/о +17.9 +15.3 85 +18 +18 1014.5 946.4
23 15.07 СЗ 4 н/о н/о +16.6 +15.3 92 +16 +16 1014.7 946.3
00 16.07 СЗ 4 н/о н/о +15.6 +15.1 97 +15 +15 1014.8 946.2
01 16.07 СЗ 4 н/о н/о +15.2 +15.0 99 +14 +14 1014.7 945.9
02 16.07 СЗ 5 н/о н/о +14.7 +14.6 99 +13 +13 1014.3 945.4
03 16.07 СЗ 4 н/о н/о +14.2 +14.2 100 +13 +13 1014.1 945.1
04 16.07 СЗ 3 н/о н/о +14.1 +14.1 100 +13 +13 1013.9 944.9
05 16.07 СЗ 3 н/о н/о +13.9 +13.9 100 +13 +13 1014.1 945.0
06 16.07 СЗ 3 н/о н/о +14.0 +14.0 100 +13 +13 1014.3 945.3 +13.7
07 16.07 СЗ 2 н/о н/о +14.5 +14.5 100 +14 +14 1014.6 945.6
08 16.07 З 2 н/о н/о +15.0 +14.8 99 +15 +15 1015.0 946.1
09 16.07 З 2 н/о н/о +16.6 +15.1 91 +17 +17 1014.9 946.3
10 16.07 З 2 н/о н/о +19.6 +15.3 76 +22 +22 комфорт 1014.3 946.4
11 16.07 З 2 н/о н/о +21.6 +14.6 64 +25 +25 комфорт 1013.9 946.4
12 16.07 З 3 н/о н/о +23.7 +14.4 56 +26 +26 жарко 1013.5 946.4
13 16.07 З 3 н/о н/о +25.8 +14.6 50 +28 +28 жарко 1012.8 946.2
14 16.07 З 3 н/о н/о +25.8 +14.0 48 +28 +28 жарко 1012.4 946.1
15 16.07 З 4 н/о н/о +26.5 +13.6 45 +29 +29 жарко 1012.0 945.8
16 16.07 З 4 н/о н/о +27.7 +14.4 44 +30 +30 жарко 1011.3 945.4
17 16.07 З 4 н/о н/о +25.3 +14.8 52 +28 +28 жарко 1011.5 945.2
18 16.07 З 4 н/о н/о +25.2 +15.8 56 +28 +28 жарко 1011.6 945.2 +29.9
19 16.07 З 5 н/о н/о +23.5 +15.9 62 +27 +27 душно 1012.0 945.3
20 16.07 СЗ 4 н/о н/о +20.8 +15.4 71 +24 +24 комфорт 1013.0 945.6
21 16.07 СЗ 3 н/о н/о +18.7 +15.3 81 +20 +20 1013.8 945.9
22 16.07 СЗ 4 н/о н/о +16.8 +14.9 89 +16 +16 1014.4 946.0
23 16.07 СЗ 3 н/о н/о +15.8 +14.6 93 +15 +15 1014.7 946.1
00 17.07 СЗ 4 н/о н/о +15.0 +14.6 97 +14 +14 1014.7 945.9
01 17.07 СЗ 3 н/о н/о +14.5 +14.3 99 +13 +13 1014.7 945.8

 

Местоположение метеостанции Порталегра (Португалия): широта 39.28 долгота -7.42 высота над уровнем моря 590 м.

В архиве по умолчанию представлена погода в Порталегре за последнюю неделю. Архивные данные за месяц целиком и за предыдущие месяцы, начиная с января 2011 года, Вы можете получить, выбрав интересующий диапазон дат из раскрывающегося списка и нажав кнопку "Ввод!".


*Определитесь, кто Вы:
робот инопланетянин человек

Внимание! Время в таблицах - всемирное. Для получения местного времени необходимо прибавить поправку, которая равна 0 ч.

Смотрите также архив погоды в соседних городах и на ближайших метеорологических станциях:

Погода в Валенсия-де-Алькантаре (Испания) (21 км)
Погода в Кастело Бранко (Португалия) (61 км)
Погода в Бадахосе (Испания) (68 км)
Погода в Эворе (Португалия) (93 км)
Погода в Касересе (Испания) (96 км)
Погода в Мериде (Испания) (98 км)
Погода в Кориа (Испания) (109 км)
Погода в Херес-де-лос-Кабалье (Испания) (123 км)
Погода в Обсерватории Penhas Douradas (Португалия) (127 км)
Погода в Коимбре (Португалия) (132 км)

Пояснения к столбцам:

Ветер - указаны скорость ветра в м/с - средняя за 10 мин, порывы в срок и между сроками (в фигурных скобках) и направление, откуда дует ветер: С - северный, СВ - северо-восточный, В - восточный, ЮВ - юго-восточный, Ю - южный, ЮЗ - юго-западный, З - западный, СЗ - северо-западный.
Видимость - горизонтальная дальность видимости в метрах или километрах. При видимости от 1 до 10 км при отсутствии осадков обычно наблюдается дымка, при ухудшении видимости до 1 км и менее - туман. В сухую погоду видимость может ухудшаться дымом, пылью или мглою.
Явления - указаны атмосферные явления, наблюдавшиеся в срок или в последний час перед сроком; фигурными скобками обозначены явления, наблюдавшиеся между сроками (за 1-3 часа до срока); квадратными скобками обозначены град или гололедные отложения с указанием их диаметра в мм.
Облачность - указаны через наклонную черту общая и нижняя облачность в баллах и высота нижней границы облаков в метрах; квадратными скобками обозначены формы облаков: Ci - перистые, Cs - перисто-слоистые, Cc - перисто-кучевые, Ac - высококучевые, As - высокослоистые, Sc - слоисто-кучевые, Ns - слоисто-дождевые, Cu - кучевые, Cb - кучево-дождевые. Подробнее классификацию облаков см. в Атласе облаков (PDF).
T - Температура воздуха - температура, измеренная на высоте 2 м над землей.
Td - Температура точки росы - температура, при понижении до которой содержащийся в воздухе водяной пар достигнет насыщения.
f - Относительная влажность воздуха - влажноcть воздуха, измеренная на высоте 2 м над землей.
Te - Эффективная температура - температура, которую ощущает одетый по сезону человек в тени. Характеристика душности погоды. При расчете учитывается влияние влажности воздуха и скорости ветра на теплоощущения человека.
Tes - Эффективная температура на солнце - температура, которую ощущает человек, с поправкой на солнечный нагрев. Характеристика знойности погоды. Зависит от высоты солнца над горизонтом, облачности и скорости ветра. Ночью, в пасмурную погоду, а также при ветре 12 м/с и более поправка равна нулю.
P - Атмосферное давление - приведенное к уровню моря атмосферное давление.
Po - Атмосферное давление - измеренное на уровне метеостанции атмосферное давление.
Tmin - Минимальная температура - минимум температуры воздуха на высоте 2 м над землей.
Tmax - Максимальная температура - максимум температуры воздуха на высоте 2 м над землей.
R - Количество осадков - Количество выпавших осадков за период времени, мм. При наведении курсора мыши на число - период времени, за который выпало указанное количество осадков.
R24 - Количество осадков - Количество выпавших осадков за 24 часа, мм.
S - Снежный покров - Высота снежного покрова, см. При наведении курсора мыши на число - состояние снежного покрова и степень покрытия местности в баллах.